Burlington, NC

8:23 PM EDT on August 21, 2017 (GMT -0400)
Burlington-Alamance Regional

Weather History for KBUY - September, 2013

Change the Weather History Date:

Thursday, September 5, 2013

  Actual Average Record
Temperature  
Mean Temperature 74 °F -  
Max Temperature 86 °F 83 °F 99 °F (1954)
Min Temperature 62 °F 63 °F 53 °F (1981)
Cooling Degree Days 9    
Growing Degree Days 24 (Base 50)    
Moisture  
Dew Point 60 °F    
Average Humidity 76    
Maximum Humidity 94    
Minimum Humidity 33    
Precipitation  
Precipitation 0.00 in - - ()
Sea Level Pressure  
Sea Level Pressure 30.08 in    
Wind  
Wind Speed 1 mph (NW)    
Max Wind Speed 7 mph    
Max Gust Speed -    
Visibility 6 miles    
Events      
Averages and records for this station are not official NWS values.
T = Trace of Precipitation, MM = Missing Value Source: NWS Daily Summary

Daily Weather History Graph

Daily Weather History Graph

Search for Another Location

Airport or City:

Trip Planner

Search our weather history database for the weather conditions in past years. The results will help you decide how hot, cold, wet, or windy it might be!

Date:

Astronomy

Sep. 05, 2013 Rise Set
Actual Time 6:52 AM EDT 7:39 PM EDT
Civil Twilight 6:26 AM EDT 8:05 PM EDT
Nautical Twilight 5:56 AM EDT 8:36 PM EDT
Astronomical Twilight 5:24 AM EDT 9:07 PM EDT
Moon 7:00 AM EDT (9/5) 7:33 PM EDT (9/5)
Length of Visible Light 13h 38m
Length of Day
12h 46m
New Moon, 0% of the Moon is Illuminated
Sep 5
New Moon
Sep 12
First Quarter
Sep 19
Full
Sep 26
Last Quarter
Oct 4
New

Hourly Weather History & Observations

Time (EDT) Temp. Heat Index Dew Point Humidity Pressure Visibility Wind Dir Wind Speed Gust Speed Precip Events Conditions
12:54 AM 68.0 °F - 64.0 °F 87% 30.10 in 5.0 mi Calm Calm - N/A   Clear
1:54 AM 66.0 °F - 64.0 °F 93% 30.09 in 5.0 mi Calm Calm - N/A   Clear
2:38 AM 64.4 °F - 62.6 °F 94% 30.09 in 1.8 mi Calm Calm - N/A   Clear
2:48 AM 64.4 °F - 62.6 °F 94% 30.09 in 4.0 mi Calm Calm - N/A   Clear
2:54 AM 66.0 °F - 63.0 °F 90% 30.07 in 6.0 mi Calm Calm - N/A   Clear
3:54 AM 66.0 °F - 63.0 °F 90% 30.07 in 5.0 mi Calm Calm - N/A   Clear
4:48 AM 64.4 °F - 60.8 °F 88% 30.08 in 1.8 mi Calm Calm - N/A   Clear
4:54 AM 64.9 °F - 62.1 °F 90% 30.07 in 1.5 mi Calm Calm - N/A   Clear
4:58 AM 66.2 °F - 62.6 °F 88% 30.08 in 3.0 mi Calm Calm - N/A   Clear
5:13 AM 62.6 °F - 60.8 °F 94% 30.08 in 1.5 mi Calm Calm - N/A   Clear
5:21 AM 64.4 °F - 60.8 °F 88% 30.09 in 0.8 mi Calm Calm - N/A   Clear
5:25 AM 64.4 °F - 60.8 °F 88% 30.09 in 2.0 mi Calm Calm - N/A   Clear
5:32 AM 64.4 °F - 60.8 °F 88% 30.09 in 5.0 mi Calm Calm - N/A   Clear
5:44 AM 62.6 °F - 60.8 °F 94% 30.09 in 2.5 mi Calm Calm - N/A   Clear
5:52 AM 62.6 °F - 60.8 °F 94% 30.09 in 3.0 mi Calm Calm - N/A   Clear
5:54 AM 63.0 °F - 60.1 °F 90% 30.07 in 3.0 mi Calm Calm - N/A   Clear
6:01 AM 62.6 °F - 60.8 °F 94% 30.09 in 1.8 mi Calm Calm - N/A   Clear
6:19 AM 62.6 °F - 60.8 °F 94% 30.09 in 5.0 mi Calm Calm - N/A   Clear
6:54 AM 63.0 °F - 60.1 °F 90% 30.09 in 2.0 mi Calm Calm - N/A   Clear
7:01 AM 62.6 °F - 60.8 °F 94% 30.10 in 1.2 mi Calm Calm - N/A   Clear
7:11 AM 62.6 °F - 60.8 °F 94% 30.11 in 0.8 mi Calm Calm - N/A   Mist
7:26 AM 62.6 °F - 60.8 °F 94% 30.11 in 1.2 mi Calm Calm - N/A   Partly Cloudy
7:32 AM 62.6 °F - 60.8 °F 94% 30.11 in 3.0 mi Calm Calm - N/A   Partly Cloudy
7:54 AM 64.9 °F - 61.0 °F 87% 30.10 in 4.0 mi Calm Calm - N/A   Clear
8:54 AM 72.0 °F - 63.0 °F 73% 30.11 in 10.0 mi NNW 3.5 mph - N/A   Clear
9:54 AM 75.0 °F - 60.1 °F 60% 30.12 in 10.0 mi NNW 4.6 mph - N/A   Clear
10:54 AM 79.0 °F - 55.0 °F 44% 30.11 in 10.0 mi Calm Calm - N/A   Clear
11:54 AM 81.0 °F 80.4 °F 53.1 °F 38% 30.10 in 10.0 mi Calm Calm - N/A   Clear
12:54 PM 84.0 °F 83.3 °F 57.0 °F 40% 30.09 in 10.0 mi North 5.8 mph - N/A   Clear
1:54 PM 82.9 °F 82.0 °F 55.0 °F 38% 30.08 in 10.0 mi Variable 5.8 mph - N/A   Clear
2:54 PM 84.9 °F 83.6 °F 55.0 °F 36% 30.07 in 10.0 mi North 4.6 mph - N/A   Clear
3:54 PM 86.0 °F 84.2 °F 54.0 °F 33% 30.06 in 10.0 mi NW 5.8 mph - N/A   Clear
4:54 PM 84.9 °F 83.7 °F 55.9 °F 37% 30.04 in 10.0 mi WNW 6.9 mph - N/A   Clear
5:54 PM 84.0 °F 82.6 °F 54.0 °F 35% 30.05 in 10.0 mi West 4.6 mph - N/A   Clear
6:54 PM 82.0 °F 81.6 °F 55.9 °F 41% 30.04 in 10.0 mi Calm Calm - N/A   Clear
7:54 PM 73.0 °F - 62.1 °F 68% 30.05 in 10.0 mi Calm Calm - N/A   Clear
8:54 PM 70.0 °F - 62.1 °F 76% 30.06 in 10.0 mi Calm Calm - N/A   Clear
9:54 PM 66.9 °F - 62.1 °F 84% 30.08 in 10.0 mi Calm Calm - N/A   Clear
10:54 PM 68.0 °F - 63.0 °F 84% 30.10 in 10.0 mi Calm Calm - N/A   Clear
11:54 PM 66.9 °F - 61.0 °F 81% 30.10 in 10.0 mi WNW 4.6 mph - N/A   Clear